Sault Ste Marie, MI

3:32 AM EST on January 22, 2018 (GMT -0500)
Sault Ste Marie Municipal / Sanderson Field

Weather History for KANJ - August, 2013

Change the Weather History Date:

Monday, August 5, 2013

  Actual Average Record
Temperature  
Mean Temperature 61 °F 66 °F  
Max Temperature 72 °F 76 °F 98 °F (1947)
Min Temperature 49 °F 56 °F 39 °F (1951)
Degree Days  
Heating Degree Days 4 2  
Month to date heating degree days 22 10  
Since 1 June heating degree days 218 259  
Since 1 July heating degree days 72 79  
Cooling Degree Days 0 3  
Month to date cooling degree days 0 15  
Year to date cooling degree days 164 128  
Since 1 June cooling degree days 155 123  
Growing Degree Days 10 (Base 50)    
Moisture  
Dew Point 50 °F    
Average Humidity 67    
Maximum Humidity 93    
Minimum Humidity 41    
Precipitation  
Precipitation T in 0.10 in 1.47 in (1995)
Month to date precipitation 0.83 0.50  
Year to date precipitation 24.08 16.50  
Sea Level Pressure  
Sea Level Pressure 30.02 in    
Wind  
Wind Speed 6 mph (SE)    
Max Wind Speed 15 mph    
Max Gust Speed 20 mph    
Visibility 8 miles    
Events Rain    
T = Trace of Precipitation, MM = Missing Value Source: NWS Daily Summary

Daily Weather History Graph

Daily Weather History Graph

Search for Another Location

Airport or City:

Trip Planner

Search our weather history database for the weather conditions in past years. The results will help you decide how hot, cold, wet, or windy it might be!

Date:

Astronomy

Aug. 05, 2013 Rise Set
Actual Time 6:23 AM EDT 9:02 PM EDT
Civil Twilight 5:49 AM EDT 9:36 PM EDT
Nautical Twilight 5:05 AM EDT 10:19 PM EDT
Astronomical Twilight 4:15 AM EDT 11:09 PM EDT
Moon 5:18 AM EDT (8/5) 7:59 PM EDT (8/5)
Length of Visible Light 15h 47m
Length of Day
14h 38m
Waning Crescent, 1% of the Moon is Illuminated
Aug 5
Waning Crescent
Aug 6
New
Aug 14
First Quarter
Aug 20
Full
Aug 28
Last Quarter

Hourly Weather History & Observations

Time (EDT) Temp. Dew Point Humidity Pressure Visibility Wind Dir Wind Speed Gust Speed Precip Events Conditions
12:55 AM 50.0 °F 46.9 °F 89% 30.10 in 10.0 mi Calm Calm - N/A   Clear
1:55 AM 50.0 °F 46.0 °F 86% 30.09 in 10.0 mi Calm Calm - N/A   Clear
2:55 AM 50.0 °F 46.9 °F 89% 30.09 in 10.0 mi NE 3.5 mph - N/A   Clear
3:55 AM 50.0 °F 48.0 °F 93% 30.08 in 9.0 mi East 3.5 mph - N/A   Clear
4:55 AM 48.9 °F 46.9 °F 93% 30.06 in 10.0 mi East 3.5 mph - N/A   Partly Cloudy
5:34 AM 48.9 °F 48.0 °F 97% 30.06 in 6.0 mi East 3.5 mph - N/A   Scattered Clouds
5:55 AM 48.9 °F 46.9 °F 93% 30.07 in 2.5 mi Calm Calm - N/A   Mostly Cloudy
6:14 AM 48.9 °F 48.0 °F 97% 30.07 in 1.0 mi Calm Calm - N/A   Overcast
6:25 AM 48.9 °F 48.0 °F 97% 30.07 in 3.0 mi Calm Calm - N/A   Overcast
6:45 AM 48.9 °F 46.9 °F 93% 30.07 in 1.8 mi East 4.6 mph - N/A   Overcast
6:55 AM 48.9 °F 46.9 °F 93% 30.06 in 4.0 mi ENE 3.5 mph - N/A   Overcast
7:31 AM 50.0 °F 48.0 °F 93% 30.07 in 2.5 mi Calm Calm - N/A   Mostly Cloudy
7:39 AM 50.0 °F 48.0 °F 93% 30.07 in 10.0 mi Calm Calm - N/A   Mostly Cloudy
7:55 AM 51.1 °F 48.9 °F 92% 30.07 in 10.0 mi East 3.5 mph - N/A   Scattered Clouds
8:55 AM 55.0 °F 53.1 °F 93% 30.06 in 10.0 mi SE 4.6 mph - N/A   Mostly Cloudy
9:55 AM 61.0 °F 55.9 °F 83% 30.05 in 10.0 mi Calm Calm - N/A   Scattered Clouds
10:55 AM 66.9 °F 52.0 °F 59% 30.03 in 10.0 mi SSW 10.4 mph - N/A   Partly Cloudy
11:55 AM 69.1 °F 55.0 °F 61% 30.01 in 10.0 mi South 9.2 mph - N/A   Scattered Clouds
12:55 PM 68.0 °F 52.0 °F 56% 30.01 in 10.0 mi South 8.1 mph - N/A   Mostly Cloudy
1:55 PM 69.1 °F 46.0 °F 44% 29.99 in 10.0 mi South 12.7 mph 19.6 mph N/A   Overcast
2:55 PM 72.0 °F 46.0 °F 40% 29.97 in 10.0 mi SSW 12.7 mph - N/A   Scattered Clouds
3:55 PM 71.1 °F 46.9 °F 42% 29.96 in 10.0 mi South 8.1 mph - N/A   Clear
4:55 PM 70.0 °F 46.0 °F 42% 29.95 in 10.0 mi SSW 6.9 mph - N/A   Mostly Cloudy
5:55 PM 69.1 °F 51.1 °F 53% 29.95 in 10.0 mi SW 8.1 mph - N/A   Mostly Cloudy
6:55 PM 64.0 °F 52.0 °F 65% 29.96 in 10.0 mi SW 9.2 mph - 0.00 in   Overcast
7:55 PM 63.0 °F 52.0 °F 67% 29.94 in 10.0 mi South 4.6 mph - N/A   Overcast
8:55 PM 62.1 °F 53.1 °F 72% 29.93 in 10.0 mi South 3.5 mph - N/A   Overcast
9:55 PM 60.1 °F 54.0 °F 80% 29.93 in 10.0 mi SE 3.5 mph - 0.00 in Rain Light Rain
10:55 PM 60.1 °F 54.0 °F 80% 29.91 in 10.0 mi East 3.5 mph - 0.00 in   Overcast
11:55 PM 60.1 °F 54.0 °F 80% 29.89 in 10.0 mi ENE 4.6 mph - 0.00 in   Overcast